Time,TemperatureF,DewpointF,PressureIn,WindDirection,WindDirectionDegrees,WindSpeedMPH,WindSpeedGustMPH,Humidity,HourlyPrecipIn,Conditions,Clouds,dailyrainin,SolarRadiationWatts/m^2,SoftwareType,DateUTC
2013-03-04 00:11:00,28.0,11.0,-100.00,SE,137,5.0,15.0,49,0.00,,,0.00,1.000000,,2013-03-04 06:11:00,
2013-03-04 00:21:00,28.0,11.0,-100.00,SE,137,5.0,15.0,49,0.00,,,0.00,1.000000,,2013-03-04 06:21:00,
2013-03-04 00:32:00,28.0,11.0,-100.00,SE,137,5.0,15.0,49,0.00,,,0.00,1.000000,,2013-03-04 06:32:00,
2013-03-04 00:42:00,28.0,11.0,-100.00,SE,137,5.0,15.0,49,0.00,,,0.00,1.000000,,2013-03-04 06:42:00,
2013-03-04 01:01:00,28.0,12.0,-100.00,SE,134,5.0,9.0,51,0.00,,,0.00,1.000000,,2013-03-04 07:01:00,
2013-03-04 01:11:00,28.0,12.0,-100.00,SE,134,5.0,9.0,51,0.00,,,0.00,1.000000,,2013-03-04 07:11:00,
2013-03-04 01:21:00,28.0,12.0,-100.00,SE,134,5.0,9.0,51,0.00,,,0.00,1.000000,,2013-03-04 07:21:00,
2013-03-04 01:32:00,28.0,12.0,-100.00,SE,134,5.0,9.0,51,0.00,,,0.00,1.000000,,2013-03-04 07:32:00,
2013-03-04 01:41:00,28.0,12.0,-100.00,SE,134,5.0,9.0,51,0.00,,,0.00,1.000000,,2013-03-04 07:41:00,
2013-03-04 02:02:00,28.0,12.0,-100.00,ESE,123,6.0,12.0,51,0.00,,,0.00,1.000000,,2013-03-04 08:02:00,
2013-03-04 02:11:00,28.0,12.0,-100.00,ESE,123,6.0,12.0,51,0.00,,,0.00,1.000000,,2013-03-04 08:11:00,
2013-03-04 02:22:00,28.0,12.0,-100.00,ESE,123,6.0,12.0,51,0.00,,,0.00,1.000000,,2013-03-04 08:22:00,
2013-03-04 02:32:00,28.0,12.0,-100.00,ESE,123,6.0,12.0,51,0.00,,,0.00,1.000000,,2013-03-04 08:32:00,
2013-03-04 02:42:00,28.0,12.0,-100.00,ESE,123,6.0,12.0,51,0.00,,,0.00,1.000000,,2013-03-04 08:42:00,
2013-03-04 03:11:00,27.0,13.0,-100.00,ESE,111,8.0,13.0,54,0.00,,,0.00,1.000000,,2013-03-04 09:11:00,
2013-03-04 03:21:00,27.0,13.0,-100.00,ESE,111,8.0,13.0,54,0.00,,,0.00,1.000000,,2013-03-04 09:21:00,
2013-03-04 03:32:00,27.0,13.0,-100.00,ESE,111,8.0,13.0,54,0.00,,,0.00,1.000000,,2013-03-04 09:32:00,
2013-03-04 03:42:00,27.0,13.0,-100.00,ESE,111,8.0,13.0,54,0.00,,,0.00,1.000000,,2013-03-04 09:42:00,
2013-03-04 04:11:00,27.0,13.0,-100.00,ESE,104,9.0,16.0,55,0.00,,,0.00,1.000000,,2013-03-04 10:11:00,
2013-03-04 04:22:00,27.0,13.0,-100.00,ESE,104,9.0,16.0,55,0.00,,,0.00,1.000000,,2013-03-04 10:22:00,
2013-03-04 04:32:00,27.0,13.0,-100.00,ESE,104,9.0,16.0,55,0.00,,,0.00,1.000000,,2013-03-04 10:32:00,
2013-03-04 04:42:00,27.0,13.0,-100.00,ESE,104,9.0,16.0,55,0.00,,,0.00,1.000000,,2013-03-04 10:42:00,
2013-03-04 05:11:00,25.0,13.0,-100.00,ESE,118,9.0,18.0,60,0.00,,,0.00,1.000000,,2013-03-04 11:11:00,
2013-03-04 05:22:00,25.0,13.0,-100.00,ESE,118,9.0,18.0,60,0.00,,,0.00,1.000000,,2013-03-04 11:22:00,
2013-03-04 05:32:00,25.0,13.0,-100.00,ESE,118,9.0,18.0,60,0.00,,,0.00,1.000000,,2013-03-04 11:32:00,
2013-03-04 05:42:00,25.0,13.0,-100.00,ESE,118,9.0,18.0,60,0.00,,,0.00,1.000000,,2013-03-04 11:42:00,
2013-03-04 06:11:00,23.0,22.0,-100.00,East,100,9.0,18.0,96,0.00,,,0.00,1.000000,,2013-03-04 12:11:00,
2013-03-04 06:22:00,23.0,22.0,-100.00,East,100,9.0,18.0,96,0.00,,,0.00,1.000000,,2013-03-04 12:22:00,
2013-03-04 06:32:00,23.0,22.0,-100.00,East,100,9.0,18.0,96,0.00,,,0.00,1.000000,,2013-03-04 12:32:00,
2013-03-04 06:42:00,23.0,22.0,-100.00,East,100,9.0,18.0,96,0.00,,,0.00,1.000000,,2013-03-04 12:42:00,
2013-03-04 07:11:00,23.0,23.0,-100.00,East,94,11.0,15.0,100,0.00,,,0.00,1.000000,,2013-03-04 13:11:00,
2013-03-04 07:21:00,23.0,23.0,-100.00,East,94,11.0,15.0,100,0.00,,,0.00,1.000000,,2013-03-04 13:21:00,
2013-03-04 07:32:00,23.0,23.0,-100.00,East,94,11.0,15.0,100,0.00,,,0.00,1.000000,,2013-03-04 13:32:00,
2013-03-04 07:42:00,23.0,23.0,-100.00,East,94,11.0,15.0,100,0.00,,,0.00,1.000000,,2013-03-04 13:42:00,
2013-03-04 08:11:00,23.0,23.0,-100.00,East,88,10.0,19.0,98,0.00,,,0.00,9.000000,,2013-03-04 14:11:00,
2013-03-04 08:22:00,23.0,23.0,-100.00,East,88,10.0,19.0,98,0.00,,,0.00,9.000000,,2013-03-04 14:22:00,
2013-03-04 08:32:00,23.0,23.0,-100.00,East,88,10.0,19.0,98,0.00,,,0.00,9.000000,,2013-03-04 14:32:00,
2013-03-04 08:42:00,23.0,23.0,-100.00,East,88,10.0,19.0,98,0.00,,,0.00,9.000000,,2013-03-04 14:42:00,
2013-03-04 09:11:00,23.0,23.0,-100.00,East,94,9.0,16.0,98,0.00,,,0.00,33.000000,,2013-03-04 15:11:00,
2013-03-04 09:22:00,23.0,23.0,-100.00,East,94,9.0,16.0,98,0.00,,,0.00,33.000000,,2013-03-04 15:22:00,
2013-03-04 09:32:00,23.0,23.0,-100.00,East,94,9.0,16.0,98,0.00,,,0.00,33.000000,,2013-03-04 15:32:00,
2013-03-04 09:42:00,23.0,23.0,-100.00,East,94,9.0,16.0,98,0.00,,,0.00,33.000000,,2013-03-04 15:42:00,
2013-03-04 10:11:00,24.0,23.0,-100.00,East,98,11.0,18.0,96,0.00,,,0.00,88.000000,,2013-03-04 16:11:00,
2013-03-04 10:21:00,24.0,23.0,-100.00,East,98,11.0,18.0,96,0.00,,,0.00,88.000000,,2013-03-04 16:21:00,
2013-03-04 10:32:00,24.0,23.0,-100.00,East,98,11.0,18.0,96,0.00,,,0.00,88.000000,,2013-03-04 16:32:00,
2013-03-04 10:42:00,24.0,23.0,-100.00,East,98,11.0,18.0,96,0.00,,,0.00,88.000000,,2013-03-04 16:42:00,
2013-03-04 11:11:00,25.0,22.0,-100.00,ESE,106,9.0,23.0,90,0.00,,,0.00,138.000000,,2013-03-04 17:11:00,
2013-03-04 11:22:00,25.0,22.0,-100.00,ESE,106,9.0,23.0,90,0.00,,,0.00,138.000000,,2013-03-04 17:22:00,
2013-03-04 11:32:00,25.0,22.0,-100.00,ESE,106,9.0,23.0,90,0.00,,,0.00,138.000000,,2013-03-04 17:32:00,
2013-03-04 11:42:00,25.0,22.0,-100.00,ESE,106,9.0,23.0,90,0.00,,,0.00,138.000000,,2013-03-04 17:42:00,
2013-03-04 12:11:00,25.0,22.0,-100.00,ESE,102,10.0,19.0,90,0.00,,,0.00,192.000000,,2013-03-04 18:11:00,
2013-03-04 12:22:00,25.0,22.0,-100.00,ESE,102,10.0,19.0,90,0.00,,,0.00,192.000000,,2013-03-04 18:22:00,
2013-03-04 12:32:00,25.0,22.0,-100.00,ESE,102,10.0,19.0,90,0.00,,,0.00,192.000000,,2013-03-04 18:32:00,
2013-03-04 12:42:00,25.0,22.0,-100.00,ESE,102,10.0,19.0,90,0.00,,,0.00,192.000000,,2013-03-04 18:42:00,
2013-03-04 13:02:00,26.0,21.0,-100.00,ESE,107,12.0,18.0,80,0.00,,,0.00,190.000000,,2013-03-04 19:02:00,
2013-03-04 13:11:00,26.0,21.0,-100.00,ESE,107,12.0,18.0,80,0.00,,,0.00,190.000000,,2013-03-04 19:11:00,
2013-03-04 13:22:00,26.0,21.0,-100.00,ESE,107,12.0,18.0,80,0.00,,,0.00,190.000000,,2013-03-04 19:22:00,
2013-03-04 13:32:00,26.0,21.0,-100.00,ESE,107,12.0,18.0,80,0.00,,,0.00,190.000000,,2013-03-04 19:32:00,
2013-03-04 13:42:00,26.0,21.0,-100.00,ESE,107,12.0,18.0,80,0.00,,,0.00,190.000000,,2013-03-04 19:42:00,
2013-03-04 14:11:00,27.0,19.0,-100.00,ESE,106,8.0,18.0,71,0.00,,,0.00,201.000000,,2013-03-04 20:11:00,
2013-03-04 14:22:00,27.0,19.0,-100.00,ESE,106,8.0,18.0,71,0.00,,,0.00,201.000000,,2013-03-04 20:22:00,
2013-03-04 14:32:00,27.0,19.0,-100.00,ESE,106,8.0,18.0,71,0.00,,,0.00,201.000000,,2013-03-04 20:32:00,
2013-03-04 14:42:00,27.0,19.0,-100.00,ESE,106,8.0,18.0,71,0.00,,,0.00,201.000000,,2013-03-04 20:42:00,
2013-03-04 15:12:00,27.0,16.0,-100.00,ESE,116,10.0,16.0,63,0.00,,,0.00,180.000000,,2013-03-04 21:12:00,
2013-03-04 15:22:00,27.0,16.0,-100.00,ESE,116,10.0,16.0,63,0.00,,,0.00,180.000000,,2013-03-04 21:22:00,
2013-03-04 15:32:00,27.0,16.0,-100.00,ESE,116,10.0,16.0,63,0.00,,,0.00,180.000000,,2013-03-04 21:32:00,
2013-03-04 15:42:00,27.0,16.0,-100.00,ESE,116,10.0,16.0,63,0.00,,,0.00,180.000000,,2013-03-04 21:42:00,
2013-03-04 16:12:00,26.0,14.0,-100.00,ESE,103,8.0,15.0,61,0.00,,,0.00,94.000000,,2013-03-04 22:12:00,
2013-03-04 16:22:00,26.0,14.0,-100.00,ESE,103,8.0,15.0,61,0.00,,,0.00,94.000000,,2013-03-04 22:22:00,
2013-03-04 16:32:00,26.0,14.0,-100.00,ESE,103,8.0,15.0,61,0.00,,,0.00,94.000000,,2013-03-04 22:32:00,
2013-03-04 16:42:00,26.0,14.0,-100.00,ESE,103,8.0,15.0,61,0.00,,,0.00,94.000000,,2013-03-04 22:42:00,
2013-03-04 17:11:00,26.0,16.0,-100.00,East,94,8.0,14.0,64,0.00,,,0.00,46.000000,,2013-03-04 23:11:00,
2013-03-04 17:22:00,26.0,16.0,-100.00,East,94,8.0,14.0,64,0.00,,,0.00,46.000000,,2013-03-04 23:22:00,
2013-03-04 17:32:00,26.0,16.0,-100.00,East,94,8.0,14.0,64,0.00,,,0.00,46.000000,,2013-03-04 23:32:00,
2013-03-04 17:42:00,26.0,16.0,-100.00,East,94,8.0,14.0,64,0.00,,,0.00,46.000000,,2013-03-04 23:42:00,
2013-03-04 19:12:00,24.0,20.0,-100.00,ENE,57,5.0,14.0,86,-99.99,,,0.00,2.000000,,2013-03-05 01:12:00,
2013-03-04 19:22:00,24.0,20.0,-100.00,ENE,57,5.0,14.0,86,-99.99,,,0.00,2.000000,,2013-03-05 01:22:00,
2013-03-04 19:32:00,24.0,20.0,-100.00,ENE,57,5.0,14.0,86,-99.99,,,0.00,2.000000,,2013-03-05 01:32:00,
2013-03-04 19:41:00,24.0,20.0,-100.00,ENE,57,5.0,14.0,86,-99.99,,,0.00,2.000000,,2013-03-05 01:41:00,
2013-03-04 20:11:00,24.0,24.0,-100.00,ENE,76,3.0,9.0,98,0.00,,,0.00,1.000000,,2013-03-05 02:11:00,
2013-03-04 20:22:00,24.0,24.0,-100.00,ENE,76,3.0,9.0,98,0.00,,,0.00,1.000000,,2013-03-05 02:22:00,
2013-03-04 20:32:00,24.0,24.0,-100.00,ENE,76,3.0,9.0,98,0.00,,,0.00,1.000000,,2013-03-05 02:32:00,
2013-03-04 20:42:00,24.0,24.0,-100.00,ENE,76,3.0,9.0,98,0.00,,,0.00,1.000000,,2013-03-05 02:42:00,
2013-03-04 21:12:00,24.0,24.0,-100.00,ENE,70,5.0,7.0,100,0.00,,,0.00,1.000000,,2013-03-05 03:12:00,
2013-03-04 21:22:00,24.0,24.0,-100.00,ENE,70,5.0,7.0,100,0.00,,,0.00,1.000000,,2013-03-05 03:22:00,
2013-03-04 21:32:00,24.0,24.0,-100.00,ENE,70,5.0,7.0,100,0.00,,,0.00,1.000000,,2013-03-05 03:32:00,
2013-03-04 21:42:00,24.0,24.0,-100.00,ENE,70,5.0,7.0,100,0.00,,,0.00,1.000000,,2013-03-05 03:42:00,
2013-03-04 22:12:00,24.0,24.0,-100.00,East,93,5.0,7.0,100,0.00,,,0.00,1.000000,,2013-03-05 04:12:00,
2013-03-04 22:22:00,24.0,24.0,-100.00,East,93,5.0,7.0,100,0.00,,,0.00,1.000000,,2013-03-05 04:22:00,
2013-03-04 22:32:00,24.0,24.0,-100.00,East,93,5.0,7.0,100,0.00,,,0.00,1.000000,,2013-03-05 04:32:00,
2013-03-04 22:42:00,24.0,24.0,-100.00,East,93,5.0,7.0,100,0.00,,,0.00,1.000000,,2013-03-05 04:42:00,
2013-03-04 23:12:00,24.0,24.0,-100.00,East,96,5.0,8.0,99,0.00,,,0.00,1.000000,,2013-03-05 05:12:00,
2013-03-04 23:22:00,24.0,24.0,-100.00,East,96,5.0,8.0,99,0.00,,,0.00,1.000000,,2013-03-05 05:22:00,
2013-03-04 23:32:00,24.0,24.0,-100.00,East,96,5.0,8.0,99,0.00,,,0.00,1.000000,,2013-03-05 05:32:00,
2013-03-04 23:42:00,24.0,24.0,-100.00,East,96,5.0,8.0,99,0.00,,,0.00,1.000000,,2013-03-05 05:42:00,